Hourly Weather Juliopol

Today, 30 November, Monday

Time Temperature Precipitation Wind Pressure Humidity
00:00 -1°C° 0 mm 1 mps 748 mmHg 86%
01:00 0°C° 0 mm 1 mps 749 mmHg 85%
02:00 0°C° 0 mm 1 mps 749 mmHg 85%
03:00 0°C° 0 mm 1 mps 749 mmHg 85%
04:00 0°C° 0 mm 1 mps 749 mmHg 85%
05:00 0°C° 0 mm 1 mps 749 mmHg 85%
06:00 0°C° 0 mm 1 mps 749 mmHg 85%
07:00 -3°C° 0 mm 2 mps 749 mmHg 86%
08:00 -2°C° 0 mm 2 mps 749 mmHg 83%
09:00 -1°C° 0 mm 2 mps 750 mmHg 80%
10:00 -1°C° 0 mm 3 mps 750 mmHg 77%
11:00 0°C° 0 mm 3 mps 750 mmHg 75%
12:00 0°C° 0 mm 3 mps 750 mmHg 74%
13:00 0°C° 0 mm 3 mps 749 mmHg 72%
14:00 0°C° 0 mm 3 mps 749 mmHg 78%
15:00 -1°C° 0 mm 3 mps 749 mmHg 84%
16:00 -1°C° 0 mm 3 mps 749 mmHg 89%
17:00 -1°C° 0 mm 3 mps 749 mmHg 89%
18:00 -1°C° 0 mm 2 mps 749 mmHg 88%
19:00 -1°C° 0 mm 2 mps 749 mmHg 87%
20:00 -1°C° 0 mm 2 mps 749 mmHg 86%
21:00 -1°C° 0 mm 2 mps 749 mmHg 85%
22:00 -1°C° 0 mm 2 mps 749 mmHg 83%
23:00 -2°C° 0 mm 3 mps 748 mmHg 83%

Tomorrow, 1 December, Tuesday

Time Temperature Precipitation Wind Pressure Humidity
00:00 -2°C° 0 mm 3 mps 748 mmHg 82%
01:00 -2°C° 0 mm 3 mps 748 mmHg 82%
02:00 -2°C° 0 mm 3 mps 747 mmHg 80%
03:00 -3°C° 0 mm 4 mps 747 mmHg 78%
04:00 -3°C° 0 mm 4 mps 747 mmHg 76%
05:00 -3°C° 0 mm 4 mps 747 mmHg 74%
06:00 -3°C° 0 mm 4 mps 747 mmHg 73%
07:00 -3°C° 0 mm 4 mps 747 mmHg 71%
08:00 -3°C° 0 mm 4 mps 747 mmHg 68%
09:00 -2°C° 0 mm 4 mps 747 mmHg 64%
10:00 -1°C° 0 mm 4 mps 747 mmHg 61%
11:00 -1°C° 0 mm 4 mps 747 mmHg 59%
12:00 -1°C° 0 mm 4 mps 747 mmHg 57%
13:00 0°C° 0 mm 4 mps 747 mmHg 55%
14:00 0°C° 0 mm 3 mps 747 mmHg 60%
15:00 -1°C° 0 mm 3 mps 747 mmHg 64%
16:00 -2°C° 0 mm 2 mps 747 mmHg 69%
17:00 -2°C° 0 mm 2 mps 747 mmHg 71%
18:00 -2°C° 0 mm 2 mps 748 mmHg 73%
19:00 -2°C° 0 mm 2 mps 748 mmHg 75%
20:00 -3°C° 0 mm 2 mps 748 mmHg 76%
21:00 -3°C° 0 mm 2 mps 748 mmHg 76%
22:00 -3°C° 0 mm 2 mps 749 mmHg 77%
23:00 -3°C° 0 mm 2 mps 749 mmHg 77%

Day after tomorrow, 2 December, Wednesday

Time Temperature Precipitation Wind Pressure Humidity
00:00 -3°C° 0 mm 2 mps 749 mmHg 78%
01:00 -3°C° 0 mm 2 mps 749 mmHg 78%
02:00 -3°C° 0 mm 2 mps 749 mmHg 78%
03:00 -3°C° 0 mm 2 mps 748 mmHg 78%
04:00 -3°C° 0 mm 2 mps 748 mmHg 78%
05:00 -3°C° 0 mm 2 mps 748 mmHg 77%
06:00 -4°C° 0 mm 2 mps 748 mmHg 77%
07:00 -5°C° 0 mm 3 mps 748 mmHg 76%
08:00 -4°C° 0 mm 3 mps 748 mmHg 72%
09:00 -4°C° 0 mm 3 mps 748 mmHg 68%
10:00 -2°C° 0 mm 3 mps 748 mmHg 64%
11:00 -2°C° 0 mm 3 mps 748 mmHg 61%
12:00 -1°C° 0 mm 3 mps 747 mmHg 59%
13:00 -1°C° 0 mm 3 mps 747 mmHg 57%
14:00 -1°C° 0 mm 3 mps 747 mmHg 62%
15:00 -2°C° 0 mm 3 mps 747 mmHg 68%
16:00 -4°C° 0 mm 3 mps 746 mmHg 73%
17:00 -4°C° 0 mm 3 mps 746 mmHg 77%
18:00 -4°C° 0 mm 3 mps 746 mmHg 81%
19:00 -4°C° 0 mm 3 mps 746 mmHg 85%
20:00 -4°C° 0 mm 3 mps 746 mmHg 86%
21:00 -4°C° 0 mm 3 mps 745 mmHg 87%
22:00 -4°C° 0 mm 3 mps 745 mmHg 88%
23:00 -4°C° 0 mm 3 mps 745 mmHg 89%

3 December, Thursday

Time Temperature Precipitation Wind Pressure Humidity
00:00 -4°C° 0 mm 3 mps 745 mmHg 89%
01:00 -5°C° 0 mm 3 mps 744 mmHg 90%
02:00 -5°C° 0 mm 3 mps 744 mmHg 89%
03:00 -5°C° 0 mm 3 mps 744 mmHg 88%
04:00 -5°C° 0 mm 3 mps 743 mmHg 88%
05:00 -4°C° 0 mm 2 mps 743 mmHg 86%
06:00 -4°C° 0 mm 2 mps 743 mmHg 85%
07:00 -4°C° 0 mm 2 mps 742 mmHg 83%
08:00 -4°C° 0 mm 2 mps 742 mmHg 76%
09:00 -4°C° 0 mm 3 mps 742 mmHg 68%
10:00 -2°C° 0 mm 3 mps 742 mmHg 60%
11:00 -2°C° 0 mm 3 mps 741 mmHg 56%
12:00 -1°C° 0 mm 3 mps 741 mmHg 51%
13:00 -1°C° 0 mm 2 mps 741 mmHg 47%
14:00 -1°C° 0 mm 2 mps 740 mmHg 49%
15:00 -1°C° 0 mm 3 mps 740 mmHg 51%
16:00 -2°C° 0 mm 3 mps 739 mmHg 52%
17:00 -1°C° 0 mm 3 mps 739 mmHg 52%
18:00 -1°C° 0 mm 3 mps 739 mmHg 51%
19:00 -1°C° 0 mm 3 mps 738 mmHg 51%
20:00 0°C° 0 mm 3 mps 738 mmHg 53%
21:00 0°C° 0 mm 3 mps 738 mmHg 55%
22:00 0°C° 0 mm 3 mps 737 mmHg 57%
23:00 0°C° 0 mm 3 mps 737 mmHg 58%

4 December, Friday

Time Temperature Precipitation Wind Pressure Humidity
00:00 -1°C° 0 mm 4 mps 736 mmHg 59%
01:00 -1°C° 0 mm 4 mps 736 mmHg 61%
02:00 -1°C° 0 mm 4 mps 735 mmHg 61%
03:00 -1°C° 0 mm 4 mps 735 mmHg 61%
04:00 0°C° 0 mm 4 mps 734 mmHg 62%
05:00 0°C° 0 mm 5 mps 734 mmHg 60%
06:00 0°C° 0 mm 5 mps 734 mmHg 59%
07:00 0°C° 0 mm 5 mps 733 mmHg 58%
08:00 +1°C° 0 mm 5 mps 733 mmHg 57%
09:00 +2°C° 0 mm 5 mps 733 mmHg 55%
10:00 +2°C° 0 mm 6 mps 733 mmHg 54%
11:00 +3°C° 0 mm 6 mps 733 mmHg 56%
12:00 +3°C° 0 mm 6 mps 732 mmHg 58%
13:00 +4°C° 0 mm 6 mps 732 mmHg 59%
14:00 +3°C° 0 mm 6 mps 731 mmHg 64%
15:00 +3°C° 0 mm 6 mps 731 mmHg 70%
16:00 +2°C° 0 mm 6 mps 731 mmHg 75%
17:00 +2°C° 0 mm 7 mps 731 mmHg 77%
18:00 +3°C° 0 mm 7 mps 731 mmHg 80%
19:00 +3°C° 0 mm 7 mps 731 mmHg 82%
20:00 +2°C° 0 mm 7 mps 731 mmHg 82%
21:00 +2°C° 0 mm 6 mps 731 mmHg 82%
22:00 +2°C° 0 mm 6 mps 731 mmHg 82%
23:00 +2°C° 0 mm 6 mps 731 mmHg 80%

5 December, Saturday

Time Temperature Precipitation Wind Pressure Humidity
00:00 +2°C° 0 mm 6 mps 731 mmHg 78%
01:00 +2°C° 0 mm 7 mps 732 mmHg 76%
02:00 +2°C° 0 mm 7 mps 732 mmHg 77%
03:00 +2°C° 0 mm 7 mps 732 mmHg 78%
04:00 +2°C° 0 mm 7 mps 731 mmHg 78%
05:00 +2°C° 0 mm 7 mps 731 mmHg 78%
06:00 +2°C° 0 mm 8 mps 731 mmHg 78%
07:00 +2°C° 0 mm 8 mps 731 mmHg 77%
08:00 +2°C° 0 mm 8 mps 731 mmHg 75%
09:00 +3°C° 0 mm 9 mps 731 mmHg 72%
10:00 +3°C° 0 mm 9 mps 731 mmHg 70%
11:00 +5°C° 0 mm 8 mps 731 mmHg 68%
12:00 +6°C° 0 mm 8 mps 731 mmHg 67%
13:00 +6°C° 0 mm 7 mps 731 mmHg 65%
14:00 +6°C° 0 mm 7 mps 732 mmHg 66%
15:00 +6°C° 0 mm 7 mps 732 mmHg 68%
16:00 +7°C° 0 mm 6 mps 732 mmHg 69%
17:00 +7°C° 0 mm 6 mps 732 mmHg 70%
18:00 +7°C° 0 mm 6 mps 732 mmHg 70%
19:00 +5°C° 0 mm 6 mps 732 mmHg 71%
20:00 +5°C° 0 mm 6 mps 732 mmHg 71%
21:00 +5°C° 0 mm 6 mps 732 mmHg 72%
22:00 +5°C° 0 mm 6 mps 732 mmHg 72%
23:00 +5°C° 0 mm 7 mps 732 mmHg 70%
Show more